�N����,����,�~����,�C��,���x,�C��,����,���ϕ���,�ő�u�ԕ���,�ő厞����,���˗�,�I�_���x,�n�����x
"22/04/01","01:00",0.8,7.9,90.9,1017.3,0.0,0.0,3.2,296.3,0.00,6.5,12.1
"22/04/01","02:00",0.4,7.3,89.8,1017.1,0.0,0.0,5.6,328.6,0.00,5.8,11.9
"22/04/01","03:00",0.0,7.0,84.2,1017.3,341.8,3.1,5.4,345.4,0.00,4.6,11.7
"22/04/01","04:00",0.0,7.1,80.5,1017.1,298.0,1.7,5.6,327.5,0.00,4.0,11.4
"22/04/01","05:00",0.0,6.9,78.2,1017.5,293.1,2.0,7.2,324.2,0.00,3.4,11.4
"22/04/01","06:00",0.0,6.5,71.2,1017.8,321.2,2.2,5.5,313.6,0.00,1.7,11.5
"22/04/01","07:00",0.0,7.2,65.7,1018.7,331.9,2.5,6.7,302.0,0.00,1.3,11.1
"22/04/01","08:00",0.0,7.7,62.8,1019.0,329.6,2.8,7.9,347.3,0.17,1.1,11.1
"22/04/01","09:00",0.0,9.7,53.6,1020.1,12.7,3.6,9.6,332.9,1.26,0.8,10.9
"22/04/01","10:00",0.0,10.2,48.2,1020.8,8.2,4.2,15.6,346.2,2.41,-0.2,11.0
"22/04/01","11:00",0.0,10.8,43.8,1021.5,9.1,3.9,14.6,344.4,3.13,-1.0,10.9
"22/04/01","12:00",0.0,11.0,38.7,1021.1,356.0,4.5,11.4,348.9,3.58,-2.5,11.1
"22/04/01","13:00",0.0,10.9,42.0,1020.6,332.2,6.0,11.6,341.6,3.64,-1.5,11.5
"22/04/01","14:00",0.0,10.4,42.2,1020.6,356.2,4.1,12.3,325.5,3.37,-1.8,11.8
"22/04/01","15:00",0.0,10.1,42.6,1020.8,353.9,4.7,13.7,339.5,2.46,-2.0,12.0
"22/04/01","16:00",0.0,10.0,45.9,1021.1,347.8,4.2,14.3,335.8,1.87,-1.1,12.2
"22/04/01","17:00",0.0,9.4,46.4,1021.3,337.5,4.0,12.8,336.8,1.27,-1.5,12.2
"22/04/01","18:00",0.0,8.2,47.6,1022.0,334.7,5.4,8.9,341.9,0.42,-2.2,12.2
"22/04/01","19:00",0.0,7.2,51.9,1022.0,318.3,4.0,10.1,341.0,0.00,-2.0,12.0
"22/04/01","20:00",0.0,6.1,61.5,1022.0,307.2,2.0,5.5,337.9,0.00,-0.7,11.7
"22/04/01","21:00",0.0,5.0,69.5,1022.5,322.0,1.7,4.1,320.2,0.00,-0.1,11.5
"22/04/01","22:00",0.0,5.4,72.2,1023.0,326.0,2.1,3.6,320.2,0.00,0.8,11.4
"22/04/01","23:00",0.0,4.3,75.5,1023.0,309.3,2.5,3.5,325.4,0.00,0.4,11.2
"22/04/01","24:00",0.0,3.3,79.9,1022.3,320.3,2.0,3.7,312.8,0.00,0.2,10.9
"22/04/02","01:00",0.0,2.7,84.1,1021.8,298.1,2.6,4.1,309.3,0.00,0.3,10.9
"22/04/02","02:00",0.0,2.6,83.3,1022.0,315.9,2.5,4.4,318.7,0.00,0.1,10.4
"22/04/02","03:00",0.0,1.7,85.0,1021.3,301.5,2.0,3.5,313.7,0.00,-0.5,10.3
"22/04/02","04:00",0.0,1.0,87.2,1021.3,321.1,2.1,2.7,319.6,0.00,-0.8,10.0
"22/04/02","05:00",0.0,1.2,88.8,1021.5,302.9,2.6,3.7,318.3,0.00,-0.4,9.7
"22/04/02","06:00",0.0,0.4,89.8,1021.3,296.2,1.6,3.7,301.9,0.00,-1.0,9.4
"22/04/02","07:00",0.0,1.0,91.1,1021.3,279.3,1.6,2.6,325.1,0.01,-0.2,9.2
"22/04/02","08:00",0.0,3.6,90.4,1022.5,282.7,1.0,2.4,320.8,0.30,2.2,9.0
"22/04/02","09:00",0.0,7.0,77.9,1024.4,166.7,0.6,2.1,111.8,1.01,3.5,9.1
"22/04/02","10:00",0.0,8.6,63.1,1024.6,236.5,1.3,4.5,187.1,1.85,2.0,9.4
"22/04/02","11:00",0.0,10.2,56.1,1024.1,270.8,1.1,3.7,201.0,2.24,1.9,9.7
"22/04/02","12:00",0.0,11.6,50.8,1022.7,204.0,1.3,3.7,245.0,2.42,1.8,9.9
"22/04/02","13:00",0.0,13.4,48.5,1022.0,208.1,1.5,4.2,231.6,2.62,2.8,10.4
"22/04/02","14:00",0.0,14.2,45.4,1021.1,184.0,1.3,4.4,151.9,2.69,2.6,11.0
"22/04/02","15:00",0.0,14.9,40.7,1019.9,199.0,2.1,4.9,195.9,2.47,1.7,11.6
"22/04/02","16:00",0.0,15.0,38.0,1019.2,129.0,1.7,5.2,137.0,1.98,0.8,12.1
"22/04/02","17:00",0.0,14.7,40.3,1019.7,249.3,1.5,5.1,346.8,1.13,1.4,12.5
"22/04/02","18:00",0.0,13.6,51.2,1019.9,130.5,2.0,3.6,204.4,0.37,3.8,12.5
"22/04/02","19:00",0.0,12.5,58.3,1020.4,123.4,1.1,4.4,102.5,0.00,4.6,12.4
"22/04/02","20:00",0.0,11.1,64.7,1021.1,294.7,1.5,3.4,138.1,0.00,4.7,12.3
"22/04/02","21:00",0.0,9.1,72.5,1021.3,297.7,1.8,2.7,330.1,0.00,4.5,12.1
"22/04/02","22:00",0.0,8.1,73.8,1021.8,327.2,3.0,4.7,305.3,0.00,3.8,11.8
"22/04/02","23:00",0.0,7.5,75.4,1022.3,329.6,3.5,5.6,313.5,0.00,3.5,11.7
"22/04/02","24:00",0.0,7.2,76.7,1022.0,324.8,3.4,5.7,343.1,0.00,3.4,11.7
"22/04/03","01:00",0.0,7.1,77.5,1022.3,328.5,3.7,6.0,334.1,0.00,3.5,11.2
"22/04/03","02:00",0.0,7.1,79.0,1022.0,302.7,3.4,6.0,338.5,0.00,3.7,11.2
"22/04/03","03:00",0.0,7.0,82.0,1021.8,291.0,2.8,4.9,305.3,0.00,4.2,10.9
"22/04/03","04:00",0.0,7.1,83.7,1021.5,305.5,3.5,5.2,321.8,0.00,4.6,10.8
"22/04/03","05:00",0.0,7.1,85.9,1021.5,295.0,2.0,3.9,310.0,0.00,4.9,10.8
"22/04/03","06:00",0.0,7.3,88.6,1021.1,306.3,2.2,3.7,326.7,0.00,5.6,10.7
"22/04/03","07:00",0.0,6.5,90.0,1021.8,288.7,2.5,3.6,301.8,0.00,5.0,10.6
"22/04/03","08:00",0.0,8.3,87.2,1022.3,273.8,2.5,4.5,301.1,0.27,6.3,10.6
"22/04/03","09:00",0.0,11.3,78.6,1022.7,208.0,0.6,3.2,277.3,0.54,7.8,10.4
"22/04/03","10:00",0.0,11.7,75.3,1022.7,136.5,2.3,5.7,112.4,0.65,7.5,10.6
"22/04/03","11:00",0.0,12.5,73.1,1023.4,119.1,2.5,5.7,78.9,1.10,7.9,10.7
"22/04/03","12:00",0.0,13.2,71.1,1023.0,105.7,2.0,5.0,137.5,1.33,8.1,11.2
"22/04/03","13:00",0.0,13.1,71.5,1022.0,112.3,1.6,4.5,119.7,0.87,8.1,11.4
"22/04/03","14:00",0.0,12.3,79.2,1022.0,135.6,1.7,4.2,109.4,0.67,8.8,11.7
"22/04/03","15:00",0.4,12.6,82.0,1021.8,187.1,1.1,2.7,200.0,0.94,9.7,11.7
"22/04/03","16:00",0.0,12.9,82.3,1021.3,154.5,1.5,2.7,161.9,0.86,10.0,12.0
"22/04/03","17:00",0.0,12.6,80.9,1021.5,116.2,1.3,2.7,120.6,0.33,9.5,12.2
"22/04/03","18:00",0.0,12.3,82.9,1021.8,141.0,0.7,2.5,117.5,0.21,9.5,12.2
"22/04/03","19:00",0.0,11.6,83.7,1021.8,105.4,0.8,1.7,119.1,0.00,9.0,12.2
"22/04/03","20:00",0.0,11.2,85.8,1022.0,137.2,0.6,1.7,104.0,0.00,9.0,12.2
"22/04/03","21:00",0.0,10.9,88.5,1022.0,322.3,1.5,2.1,319.1,0.00,9.1,11.9
"22/04/03","22:00",0.0,10.4,89.7,1022.7,303.1,2.1,3.3,335.4,0.00,8.8,11.9
"22/04/03","23:00",0.0,10.1,89.3,1022.7,322.5,2.3,4.0,336.0,0.00,8.5,12.0
"22/04/03","24:00",0.0,9.9,89.2,1022.5,321.2,3.1,4.3,322.0,0.00,8.2,11.8
"22/04/04","01:00",0.0,9.2,89.3,1022.5,332.1,3.6,5.1,346.2,0.00,7.6,11.8
"22/04/04","02:00",0.0,8.3,89.9,1022.0,333.7,4.6,6.3,304.9,0.00,6.8,11.5
"22/04/04","03:00",0.0,7.5,90.9,1021.8,332.7,3.9,6.2,344.2,0.00,6.2,11.4
"22/04/04","04:00",0.0,7.8,91.6,1021.3,310.7,3.5,5.9,322.9,0.00,6.6,11.4
"22/04/04","05:00",0.0,8.0,90.2,1021.1,321.4,3.5,6.5,341.8,0.00,6.5,11.0
"22/04/04","06:00",0.0,7.5,90.0,1021.1,323.2,3.7,5.9,318.1,0.00,6.0,11.0
"22/04/04","07:00",0.0,7.8,90.9,1021.3,304.9,3.1,5.6,332.1,0.01,6.4,10.8
"22/04/04","08:00",0.0,10.5,83.1,1021.8,297.0,3.2,5.8,323.0,0.52,7.8,10.8
"22/04/04","09:00",0.0,12.5,73.7,1021.8,332.2,4.6,9.6,345.0,1.49,8.0,10.8
"22/04/04","10:00",0.2,14.4,69.1,1021.5,334.1,3.9,8.1,335.1,2.43,8.9,10.9
"22/04/04","11:00",0.0,15.3,62.0,1021.1,344.0,3.9,9.1,342.9,3.16,8.1,11.2
"22/04/04","12:00",0.0,16.0,57.4,1020.4,330.4,4.7,9.3,330.2,3.64,7.6,11.7
"22/04/04","13:00",0.0,17.1,50.3,1019.4,347.2,3.7,9.8,320.5,3.74,6.7,12.3
"22/04/04","14:00",0.0,16.5,51.8,1019.0,343.8,4.9,10.2,342.1,3.56,6.6,12.6
"22/04/04","15:00",0.0,15.8,50.9,1019.0,339.4,5.7,13.2,341.4,3.11,5.7,13.2
"22/04/04","16:00",0.0,15.4,51.9,1018.7,343.1,5.5,10.9,344.6,2.37,5.6,13.3
"22/04/04","17:00",0.0,14.7,53.7,1019.0,337.6,4.2,12.8,351.0,1.40,5.5,13.4
"22/04/04","18:00",0.0,13.5,55.5,1019.4,357.8,2.3,6.8,341.5,0.47,4.8,13.5
"22/04/04","19:00",0.0,10.9,64.1,1019.7,326.8,1.5,7.9,322.4,0.01,4.4,13.2
"22/04/04","20:00",0.0,9.3,70.1,1019.7,328.3,2.3,3.9,326.0,0.00,4.2,13.1
"22/04/04","21:00",0.0,9.4,71.1,1019.9,310.1,4.1,7.1,324.8,0.00,4.5,12.7
"22/04/04","22:00",0.0,8.0,74.8,1020.1,284.3,2.1,5.2,324.9,0.00,3.8,12.5
"22/04/04","23:00",0.0,7.8,77.6,1019.9,287.4,2.6,4.8,309.4,0.00,4.2,12.1
"22/04/04","24:00",0.0,8.2,76.7,1020.1,326.3,4.7,6.7,341.0,0.00,4.4,11.9
"22/04/05","01:00",0.0,7.3,78.6,1019.7,322.6,2.7,5.4,336.6,0.00,3.9,11.5
"22/04/05","02:00",0.0,6.8,82.2,1019.0,317.7,3.4,5.6,322.0,0.00,4.0,11.4
"22/04/05","03:00",0.0,5.8,85.7,1019.0,315.7,2.2,4.9,310.7,0.00,3.6,11.3
"22/04/05","04:00",0.0,4.8,88.1,1018.7,320.9,1.7,3.3,325.2,0.00,3.0,11.0
"22/04/05","05:00",0.0,6.0,88.2,1019.2,333.2,2.6,4.9,328.4,0.00,4.2,10.8
"22/04/05","06:00",0.0,6.1,86.6,1019.2,328.1,5.0,7.9,325.8,0.00,4.1,10.6
"22/04/05","07:00",0.0,6.4,86.1,1019.7,332.9,3.4,8.0,331.8,0.03,4.3,10.1
"22/04/05","08:00",0.0,9.8,79.6,1019.9,244.2,1.3,6.3,324.3,0.52,6.5,10.4
"22/04/05","09:00",0.0,12.2,68.2,1020.1,316.1,2.0,4.7,315.6,1.47,6.6,10.4
"22/04/05","10:00",0.0,14.5,61.4,1019.9,198.1,1.3,2.9,243.0,2.45,7.2,10.7
"22/04/05","11:00",0.0,16.3,57.4,1019.0,158.3,2.0,4.7,127.4,3.16,7.9,11.2
"22/04/05","12:00",0.0,17.9,52.6,1017.8,201.3,1.5,5.4,126.1,3.55,8.1,11.6
"22/04/05","13:00",0.0,19.0,48.0,1016.4,130.8,1.8,4.7,144.4,3.72,7.8,12.6
"22/04/05","14:00",0.0,20.1,43.7,1014.7,133.8,2.2,5.7,123.2,3.55,7.4,13.3
"22/04/05","15:00",0.0,21.5,38.4,1014.2,185.9,1.7,5.1,235.2,3.03,6.8,13.8
"22/04/05","16:00",0.0,20.9,38.5,1013.8,169.7,2.7,5.2,158.4,2.27,6.3,14.5
"22/04/05","17:00",0.0,20.6,39.0,1013.5,193.8,1.7,5.4,151.8,1.32,6.2,14.6
"22/04/05","18:00",0.0,18.9,41.8,1013.8,187.7,1.8,4.8,133.1,0.43,5.7,14.9
"22/04/05","19:00",0.0,16.3,55.9,1014.0,294.3,1.7,3.3,237.3,0.01,7.5,14.6
"22/04/05","20:00",0.0,14.5,62.5,1014.7,335.4,2.1,4.4,335.5,0.00,7.5,14.4
"22/04/05","21:00",0.0,13.0,66.6,1015.4,290.0,1.6,2.9,314.6,0.00,7.0,14.3
"22/04/05","22:00",0.0,12.3,68.1,1016.1,300.8,1.8,3.2,312.2,0.00,6.6,13.8
"22/04/05","23:00",0.0,11.4,70.2,1015.9,306.8,1.6,3.4,320.1,0.00,6.2,13.5
"22/04/05","24:00",0.0,10.7,71.7,1016.4,311.0,2.0,3.2,316.7,0.00,5.8,13.1
"22/04/06","01:00",0.0,10.1,72.7,1016.4,298.0,2.0,3.4,318.9,0.00,5.5,13.1
"22/04/06","02:00",0.0,9.7,74.8,1016.1,298.1,2.3,3.5,323.1,0.00,5.5,12.7
"22/04/06","03:00",0.0,9.3,76.3,1016.4,308.5,1.5,2.9,303.2,0.00,5.4,12.8
"22/04/06","04:00",0.0,8.1,78.5,1015.9,316.3,1.6,2.7,307.8,0.00,4.6,12.4
"22/04/06","05:00",0.0,7.8,81.2,1015.9,312.8,2.2,3.4,311.2,0.00,4.8,12.0
"22/04/06","06:00",0.0,6.7,82.7,1016.1,298.5,1.1,2.7,333.1,0.00,4.0,11.9
"22/04/06","07:00",0.0,7.5,86.5,1015.6,314.6,1.7,2.5,326.0,0.03,5.4,11.6
"22/04/06","08:00",0.0,12.8,78.1,1016.8,228.1,0.3,2.7,329.7,0.59,9.1,11.8
"22/04/06","09:00",0.0,15.2,62.7,1016.8,165.7,1.1,2.6,152.6,1.47,8.2,11.7
"22/04/06","10:00",0.0,17.6,55.4,1015.9,198.9,1.1,3.2,215.7,2.42,8.6,12.2
"22/04/06","11:00",0.0,18.6,53.0,1015.4,165.7,2.5,4.9,148.7,2.92,8.9,12.6
"22/04/06","12:00",0.0,20.1,51.7,1014.2,148.2,2.8,5.5,142.7,3.39,9.9,13.2
"22/04/06","13:00",0.0,21.3,40.8,1013.5,142.0,3.1,5.5,141.9,3.53,7.5,13.7
"22/04/06","14:00",0.0,21.9,38.1,1012.3,153.6,2.5,7.9,151.1,3.42,7.0,14.2
"22/04/06","15:00",0.0,22.2,37.3,1011.6,161.7,2.8,6.5,170.0,2.86,7.0,15.0
"22/04/06","16:00",0.0,22.1,35.8,1011.2,201.8,2.7,5.4,143.0,2.13,6.3,15.1
"22/04/06","17:00",0.0,21.8,28.7,1011.4,204.5,1.7,5.6,154.4,1.27,2.9,15.6
"22/04/06","18:00",0.0,18.9,49.1,1011.9,352.0,3.6,6.3,334.8,0.43,8.0,15.3
"22/04/06","19:00",0.0,15.7,61.3,1013.0,344.2,4.2,8.0,347.9,0.04,8.3,15.3
"22/04/06","20:00",0.0,14.5,67.2,1014.5,331.2,5.5,9.7,347.0,0.00,8.5,15.0
"22/04/06","21:00",0.0,13.4,70.0,1015.4,326.4,1.3,7.7,340.7,0.00,8.1,14.8
"22/04/06","22:00",0.0,12.0,76.4,1016.1,320.7,2.5,3.6,344.3,0.00,8.0,14.4
"22/04/06","23:00",0.0,11.8,80.5,1015.6,327.3,3.7,4.9,327.5,0.00,8.6,13.9
"22/04/06","24:00",0.0,11.4,82.1,1014.9,332.3,3.9,5.9,316.7,0.00,8.5,13.9
"22/04/07","01:00",0.0,10.4,83.5,1014.9,337.5,2.2,7.5,343.3,0.00,7.8,13.4
"22/04/07","02:00",0.0,9.4,84.9,1014.7,337.9,2.8,4.4,346.9,0.00,7.0,13.3
"22/04/07","03:00",0.0,9.1,83.9,1013.8,339.2,3.0,5.5,314.1,0.00,6.6,13.1
"22/04/07","04:00",0.0,9.0,83.0,1013.5,317.3,2.7,5.0,330.7,0.00,6.3,12.9
"22/04/07","05:00",0.0,7.8,83.5,1012.8,284.3,1.7,4.5,343.9,0.00,5.2,12.2
"22/04/07","06:00",0.0,6.3,85.7,1012.6,313.0,0.8,3.1,306.5,0.00,4.1,12.2
"22/04/07","07:00",0.0,7.6,88.3,1013.0,305.2,2.6,3.3,325.2,0.03,5.8,12.0
"22/04/07","08:00",0.0,11.8,80.6,1014.0,300.8,1.5,4.0,320.0,0.49,8.6,12.1
"22/04/07","09:00",0.0,16.2,62.3,1013.0,288.3,0.6,3.6,326.9,1.36,9.0,12.1
"22/04/07","10:00",0.0,19.0,47.2,1012.1,287.7,0.7,2.1,60.9,2.36,7.5,12.6
"22/04/07","11:00",0.0,20.5,38.0,1010.7,199.6,1.6,3.2,123.7,3.04,5.7,12.8
"22/04/07","12:00",0.0,21.7,37.4,1009.5,215.1,2.2,5.2,152.6,3.22,6.6,13.5
"22/04/07","13:00",0.0,23.0,30.2,1008.8,232.0,3.4,6.8,323.5,3.51,4.6,13.9
"22/04/07","14:00",0.0,22.5,27.8,1008.1,232.1,4.6,9.7,225.9,3.38,3.0,14.8
"22/04/07","15:00",0.0,22.9,29.4,1007.4,235.3,3.5,11.2,224.5,2.91,4.2,15.2
"22/04/07","16:00",0.0,22.7,30.0,1006.9,241.2,2.8,8.9,216.3,2.24,4.3,15.4
"22/04/07","17:00",0.0,21.6,31.0,1006.7,234.1,2.5,9.0,222.7,1.32,3.8,15.5
"22/04/07","18:00",0.0,20.2,38.8,1007.1,219.0,1.8,7.0,218.6,0.49,5.8,15.5
"22/04/07","19:00",0.0,18.5,47.6,1008.3,281.4,1.6,5.9,232.3,0.02,7.2,15.3
"22/04/07","20:00",0.0,17.7,44.5,1009.5,312.8,2.1,4.7,329.0,0.00,5.5,15.2
"22/04/07","21:00",0.0,15.1,55.1,1010.4,318.1,1.6,5.8,339.0,0.00,6.2,14.8
"22/04/07","22:00",0.0,14.9,58.9,1011.2,312.5,1.0,5.8,344.8,0.00,7.0,14.7
"22/04/07","23:00",0.0,14.1,66.8,1011.6,344.3,2.0,5.0,345.5,0.00,8.1,14.3
"22/04/07","24:00",0.0,12.6,72.4,1012.1,314.1,1.6,4.4,334.8,0.00,7.8,14.2
"22/04/08","01:00",0.0,12.5,75.3,1012.3,146.1,0.7,3.3,341.1,0.00,8.3,13.8
"22/04/08","02:00",0.0,10.7,81.9,1011.9,333.3,2.0,3.4,342.7,0.00,7.8,13.7
"22/04/08","03:00",0.0,9.3,85.1,1012.3,311.5,1.1,3.1,338.2,0.00,7.0,13.4
"22/04/08","04:00",0.0,8.5,87.9,1012.8,291.6,1.1,2.4,337.7,0.00,6.7,13.4
"22/04/08","05:00",0.0,8.1,90.4,1013.0,308.7,1.5,2.8,337.7,0.00,6.7,13.0
"22/04/08","06:00",0.0,8.3,92.0,1014.0,302.8,2.0,3.2,307.1,0.00,7.1,12.6
"22/04/08","07:00",0.0,10.5,90.3,1015.4,312.3,2.6,4.5,305.6,0.03,9.0,12.5
"22/04/08","08:00",0.0,12.4,75.5,1016.4,331.5,4.9,9.4,332.8,0.55,8.2,12.4
"22/04/08","09:00",0.0,13.6,69.0,1016.6,351.8,4.4,9.0,318.7,1.44,8.1,12.4
"22/04/08","10:00",0.0,15.3,61.3,1016.6,357.5,3.4,7.8,341.4,2.36,7.9,12.5
"22/04/08","11:00",0.0,17.4,53.9,1015.9,357.6,3.0,6.6,346.5,3.08,8.0,13.0
"22/04/08","12:00",0.0,18.8,46.5,1014.9,356.0,2.7,8.5,351.0,3.53,7.1,13.4
"22/04/08","13:00",0.0,19.8,41.0,1014.5,354.7,2.0,6.6,343.3,3.65,6.2,13.8
"22/04/08","14:00",0.0,19.5,43.6,1013.5,284.5,3.2,7.0,324.8,3.48,6.8,14.5
"22/04/08","15:00",0.0,20.5,37.2,1012.6,270.7,2.5,6.5,322.1,3.02,5.4,15.0
"22/04/08","16:00",0.0,20.6,34.4,1012.3,251.2,3.0,8.2,322.1,2.32,4.4,15.2
"22/04/08","17:00",0.0,20.5,30.9,1012.6,294.0,2.7,6.0,251.0,1.41,2.8,15.7
"22/04/08","18:00",0.0,19.0,34.7,1012.8,112.9,1.5,4.9,340.1,0.50,3.1,15.6
"22/04/08","19:00",0.0,16.0,41.2,1013.3,287.8,0.5,3.6,109.2,0.03,2.9,15.6
"22/04/08","20:00",0.0,12.6,59.3,1014.2,305.8,1.8,2.9,301.0,0.00,4.9,15.1
"22/04/08","21:00",0.0,11.3,64.9,1014.7,297.3,2.2,3.5,310.9,0.00,5.0,15.1
"22/04/08","22:00",0.0,10.2,68.9,1015.2,320.1,2.1,3.1,312.1,0.00,4.8,14.6
"22/04/08","23:00",0.0,9.2,69.8,1015.2,335.3,1.6,3.3,313.6,0.00,4.0,14.1
"22/04/08","24:00",0.0,9.1,71.3,1015.4,313.3,2.1,3.3,309.7,0.00,4.2,13.7
"22/04/09","01:00",0.0,8.4,72.9,1015.2,307.5,2.0,3.1,315.8,0.00,3.9,13.5
"22/04/09","02:00",0.0,6.7,76.7,1014.7,299.9,1.1,2.5,332.7,0.00,2.9,13.2
"22/04/09","03:00",0.0,6.2,79.6,1014.5,321.2,1.7,2.5,323.4,0.00,3.0,12.8
"22/04/09","04:00",0.0,6.4,81.4,1014.5,306.9,1.6,2.5,328.5,0.00,3.5,12.4
"22/04/09","05:00",0.0,5.5,81.1,1014.7,300.8,1.5,2.5,311.2,0.00,2.6,12.2
"22/04/09","06:00",0.0,5.2,83.5,1014.7,323.0,1.2,2.2,333.1,0.00,2.7,11.7
"22/04/09","07:00",0.0,6.6,85.2,1015.6,326.7,2.3,2.7,323.7,0.03,4.3,11.8
"22/04/09","08:00",0.0,12.0,73.1,1017.1,295.3,1.0,2.1,331.0,0.55,7.4,11.7
"22/04/09","09:00",0.0,16.4,48.4,1016.8,9.5,0.5,1.1,323.0,1.49,5.5,11.6
"22/04/09","10:00",0.0,18.6,46.7,1015.6,172.1,1.5,4.2,182.5,2.43,7.0,12.3
"22/04/09","11:00",0.0,20.8,42.0,1014.9,125.5,1.1,4.0,122.9,3.12,7.5,12.6
"22/04/09","12:00",0.0,22.7,38.3,1013.3,282.3,2.0,4.4,348.4,3.53,7.8,13.5
"22/04/09","13:00",0.0,24.0,34.4,1012.6,319.1,1.8,8.2,350.9,3.65,7.4,14.2
"22/04/09","14:00",0.0,23.9,36.4,1012.1,176.9,3.6,7.3,187.0,3.47,8.1,14.8
"22/04/09","15:00",0.0,24.9,36.1,1011.2,243.0,2.6,8.6,208.1,3.03,8.9,15.5
"22/04/09","16:00",0.0,24.5,33.4,1010.9,199.8,2.6,6.6,190.5,2.31,7.4,15.7
"22/04/09","17:00",0.0,24.2,32.5,1010.7,220.2,2.6,6.3,251.5,1.41,6.7,16.1
"22/04/09","18:00",0.0,22.8,35.6,1011.2,208.6,1.8,5.8,167.1,0.49,6.8,16.4
"22/04/09","19:00",0.0,20.0,42.6,1011.9,212.5,1.0,4.2,209.0,0.03,7.0,15.7
"22/04/09","20:00",0.0,16.4,56.0,1013.0,326.6,2.1,3.5,326.9,0.00,7.6,15.8
"22/04/09","21:00",0.0,14.6,63.1,1013.5,314.1,1.7,2.6,315.6,0.00,7.7,15.5
"22/04/09","22:00",0.0,13.5,66.5,1014.5,306.5,2.2,3.2,322.7,0.00,7.4,15.2
"22/04/09","23:00",0.0,12.5,69.0,1014.5,326.8,1.7,2.5,329.5,0.00,7.0,14.7
"22/04/09","24:00",0.0,11.6,73.1,1014.9,312.2,1.5,3.2,317.0,0.00,7.0,14.5
"22/04/10","01:00",0.0,10.5,80.0,1015.4,335.2,1.6,2.9,307.4,0.00,7.2,14.1
"22/04/10","02:00",0.0,10.6,79.0,1015.2,319.2,1.7,4.0,324.6,0.00,7.2,13.8
"22/04/10","03:00",0.0,10.1,81.7,1015.4,299.5,1.7,2.6,310.1,0.00,7.2,13.7
"22/04/10","04:00",0.0,9.1,83.3,1015.4,310.7,1.2,3.1,316.4,0.00,6.5,13.5
"22/04/10","05:00",0.0,9.2,86.0,1015.4,301.4,1.5,2.8,328.0,0.00,7.0,13.1
"22/04/10","06:00",0.0,9.1,88.7,1015.2,306.9,2.1,3.1,305.2,0.00,7.4,12.9
"22/04/10","07:00",0.0,10.2,89.8,1015.9,293.3,1.6,2.5,336.8,0.04,8.6,12.7
"22/04/10","08:00",0.0,14.5,86.3,1016.8,321.7,0.5,2.2,336.1,0.54,12.3,12.7
"22/04/10","09:00",0.0,18.4,69.9,1016.8,135.1,0.7,1.9,113.8,1.45,12.9,12.8
"22/04/10","10:00",0.0,19.8,65.1,1016.1,129.0,1.8,3.7,128.3,2.35,13.1,13.2
"22/04/10","11:00",0.0,21.6,59.4,1015.6,170.5,2.1,4.7,133.0,3.05,13.4,13.8
"22/04/10","12:00",0.0,23.7,53.7,1014.2,175.6,2.1,5.0,118.6,3.44,13.8,14.3
"22/04/10","13:00",0.0,25.7,48.2,1013.0,133.9,1.8,5.7,115.9,3.57,14.0,15.2
"22/04/10","14:00",0.0,26.9,42.4,1012.3,179.7,1.6,4.7,132.4,3.42,13.1,16.0
"22/04/10","15:00",0.0,27.2,34.1,1011.9,169.8,2.2,5.2,168.2,2.97,10.1,16.7
"22/04/10","16:00",0.0,27.4,33.1,1011.4,174.5,2.5,5.8,132.5,2.25,9.8,17.2
"22/04/10","17:00",0.0,26.9,29.9,1011.2,174.8,2.6,5.7,125.1,1.27,7.9,17.2
"22/04/10","18:00",0.0,25.3,37.0,1011.9,200.7,1.5,4.1,180.0,0.39,9.6,17.3
"22/04/10","19:00",0.0,21.6,48.2,1012.6,289.6,0.8,2.6,230.9,0.04,10.2,17.1
"22/04/10","20:00",0.0,19.4,54.1,1013.8,341.9,2.8,3.7,345.9,0.00,9.9,17.0
"22/04/10","21:00",0.0,17.8,60.2,1014.9,343.4,1.5,3.5,347.7,0.00,10.0,16.6
"22/04/10","22:00",0.0,16.3,66.0,1016.1,314.4,1.8,2.8,310.6,0.00,10.0,16.2
"22/04/10","23:00",0.0,15.5,67.5,1015.9,293.7,1.3,3.1,314.9,0.00,9.6,15.9
"22/04/10","24:00",0.0,14.0,72.7,1015.9,302.3,1.1,2.8,313.5,0.00,9.2,15.8
"22/04/11","01:00",0.0,13.3,76.3,1015.9,300.4,1.2,1.9,312.1,0.00,9.3,15.4
"22/04/11","02:00",0.0,13.1,77.7,1015.6,288.7,1.2,2.1,317.6,0.00,9.3,15.0
"22/04/11","03:00",0.0,13.0,76.8,1015.9,315.2,1.6,2.7,312.6,0.00,9.1,15.0
"22/04/11","04:00",0.0,12.6,79.6,1015.9,293.9,1.8,3.3,313.2,0.00,9.2,14.6
"22/04/11","05:00",0.0,11.7,83.0,1015.4,314.4,1.8,2.5,320.8,0.00,9.0,14.3
"22/04/11","06:00",0.0,11.5,86.2,1015.6,315.4,2.1,2.8,305.4,0.00,9.3,14.2
"22/04/11","07:00",0.0,12.9,87.6,1016.1,329.3,1.3,3.1,315.3,0.06,10.9,14.1
"22/04/11","08:00",0.0,16.7,79.9,1017.1,274.6,0.5,1.8,321.4,0.64,13.3,14.0
"22/04/11","09:00",0.0,19.0,68.3,1016.1,146.3,0.6,2.0,143.8,1.02,13.1,14.0
"22/04/11","10:00",0.0,20.1,62.9,1015.2,176.1,1.1,3.5,136.3,1.54,12.9,14.4
"22/04/11","11:00",0.0,22.1,57.4,1013.8,166.8,2.2,4.3,127.6,2.91,13.3,14.8
"22/04/11","12:00",0.0,24.4,48.7,1013.0,180.2,1.7,4.9,125.1,3.54,12.9,15.6
"22/04/11","13:00",0.0,25.2,33.4,1011.2,124.2,2.6,5.0,177.6,3.43,8.0,16.1
"22/04/11","14:00",0.0,25.2,30.7,1010.7,160.2,2.5,7.2,140.4,2.15,6.8,16.7
"22/04/11","15:00",0.0,25.1,25.5,1010.0,254.4,2.2,4.4,341.4,1.52,4.0,17.0
"22/04/11","16:00",0.0,24.1,30.1,1009.7,287.5,2.0,4.7,250.1,1.17,5.5,17.2
"22/04/11","17:00",0.0,22.8,40.7,1010.0,246.1,2.1,4.3,336.0,0.48,8.8,17.1
"22/04/11","18:00",0.0,20.8,47.5,1010.7,299.3,2.5,5.4,339.7,0.17,9.3,17.0
"22/04/11","19:00",0.0,19.6,49.7,1011.6,294.6,1.6,4.8,241.9,0.01,8.9,17.0
"22/04/11","20:00",0.0,18.7,56.5,1012.1,275.2,1.6,3.7,341.2,0.00,9.9,16.7
"22/04/11","21:00",0.0,17.5,63.0,1012.8,332.8,1.7,3.9,339.7,0.00,10.4,16.4
"22/04/11","22:00",0.0,16.9,69.3,1012.8,338.1,1.5,2.9,336.9,0.00,11.3,16.3
"22/04/11","23:00",0.0,15.8,74.0,1012.3,305.0,1.2,3.3,342.3,0.00,11.2,15.9
"22/04/11","24:00",0.0,14.7,79.2,1012.3,326.4,1.6,2.6,338.2,0.00,11.2,15.9
"22/04/12","01:00",0.0,14.3,82.9,1012.1,294.7,1.6,2.8,321.5,0.00,11.5,15.8
"22/04/12","02:00",0.0,13.4,85.1,1011.9,292.3,1.7,3.1,321.6,0.00,11.0,15.4
"22/04/12","03:00",0.0,12.9,87.8,1011.9,298.3,2.0,2.6,313.7,0.00,11.0,15.2
"22/04/12","04:00",0.0,12.0,89.3,1011.9,294.1,1.2,2.9,312.2,0.00,10.3,15.0
"22/04/12","05:00",0.0,12.4,90.8,1012.1,327.5,2.1,2.6,328.5,0.00,11.0,14.6
"22/04/12","06:00",0.0,11.9,92.2,1011.4,325.3,2.0,2.2,312.9,0.00,10.7,14.6
"22/04/12","07:00",0.0,13.5,93.1,1011.4,342.2,1.2,2.4,327.3,0.03,12.4,14.4
"22/04/12","08:00",0.0,18.0,89.1,1011.6,333.5,0.6,2.0,338.4,0.57,16.2,14.5
"22/04/12","09:00",0.0,20.4,69.0,1011.4,354.9,0.6,1.8,118.1,1.33,14.6,14.6
"22/04/12","10:00",0.0,22.2,63.6,1010.7,163.6,1.1,3.3,128.6,1.93,15.0,14.9
"22/04/12","11:00",0.0,23.6,57.8,1009.5,124.9,1.7,4.5,132.6,3.06,14.8,15.5
"22/04/12","12:00",0.0,23.9,56.4,1008.6,70.6,1.8,5.7,130.4,2.97,14.7,16.0
"22/04/12","13:00",0.0,25.7,52.1,1007.4,257.1,1.1,5.4,328.8,2.19,15.2,16.6
"22/04/12","14:00",0.0,26.8,50.1,1006.0,238.0,2.5,5.4,340.1,2.95,15.6,17.2
"22/04/12","15:00",0.0,27.5,49.2,1005.7,253.0,1.3,6.7,352.4,2.41,15.9,17.5
"22/04/12","16:00",0.0,28.2,45.1,1005.0,252.8,2.5,6.0,350.1,2.34,15.2,18.0
"22/04/12","17:00",0.0,27.1,49.1,1004.8,256.9,2.0,5.6,239.2,1.14,15.5,18.3
"22/04/12","18:00",0.0,25.5,50.9,1005.5,207.8,2.7,5.4,240.0,0.37,14.6,18.3
"22/04/12","19:00",0.0,23.3,57.8,1005.7,304.0,0.7,5.1,237.7,0.01,14.6,18.3
"22/04/12","20:00",0.0,21.7,63.9,1006.9,322.6,2.5,4.8,344.0,0.00,14.6,18.1
"22/04/12","21:00",0.0,19.9,68.4,1008.1,336.9,1.1,4.1,342.0,0.00,14.0,17.8
"22/04/12","22:00",0.0,18.7,76.6,1008.3,93.1,0.6,2.4,342.9,0.00,14.5,17.4
"22/04/12","23:00",0.0,18.7,77.7,1008.8,301.1,1.1,2.4,358.5,0.00,14.8,17.3
"22/04/12","24:00",0.0,18.3,80.4,1009.0,330.4,1.5,2.1,337.3,0.00,14.9,17.1
"22/04/13","01:00",0.0,18.2,83.0,1008.6,330.7,1.6,2.1,335.9,0.00,15.3,17.0
"22/04/13","02:00",0.0,17.1,85.2,1008.6,295.3,1.2,2.7,313.6,0.00,14.6,16.9
"22/04/13","03:00",0.0,17.2,86.4,1008.8,296.2,1.0,2.6,309.8,0.00,15.0,16.6
"22/04/13","04:00",0.0,17.3,86.7,1008.3,295.8,1.5,2.5,322.1,0.00,15.1,16.6
"22/04/13","05:00",0.0,17.1,87.6,1008.1,324.5,1.7,2.2,323.1,0.00,15.1,16.5
"22/04/13","06:00",0.0,17.4,88.7,1008.3,326.6,1.6,2.4,320.3,0.00,15.6,16.3
"22/04/13","07:00",0.0,18.0,88.1,1008.8,301.6,0.8,2.4,313.0,0.02,16.0,16.2
"22/04/13","08:00",0.0,19.2,86.2,1008.8,299.3,0.6,2.0,337.9,0.18,16.9,16.4
"22/04/13","09:00",0.0,20.9,80.9,1008.6,170.9,0.5,2.1,242.6,0.66,17.5,16.3
"22/04/13","10:00",0.0,22.2,76.6,1008.3,183.5,2.1,4.0,205.9,1.17,17.9,16.7
"22/04/13","11:00",0.0,24.5,71.2,1007.8,174.0,1.8,4.1,125.3,2.07,19.0,16.8
"22/04/13","12:00",0.0,25.9,64.9,1006.2,152.0,2.0,4.2,170.6,3.16,18.8,17.4
"22/04/13","13:00",0.0,26.3,62.8,1005.2,191.9,2.0,5.4,222.4,3.27,18.7,18.0
"22/04/13","14:00",0.0,27.2,57.6,1005.2,174.6,1.3,6.2,195.7,2.92,18.2,18.7
"22/04/13","15:00",0.0,26.8,55.6,1004.3,154.5,2.0,4.7,133.1,1.44,17.2,19.1
"22/04/13","16:00",0.0,26.7,55.1,1003.6,226.2,1.6,4.5,204.3,1.32,17.0,19.3
"22/04/13","17:00",0.0,22.2,67.1,1006.0,347.4,5.4,10.5,351.5,0.36,15.8,19.4
"22/04/13","18:00",0.0,20.0,74.9,1007.6,338.2,5.7,11.2,343.7,0.02,15.5,19.0
"22/04/13","19:00",0.0,19.2,75.7,1008.6,334.9,5.1,11.6,340.6,0.00,14.8,18.7
"22/04/13","20:00",0.0,18.8,76.3,1009.3,344.6,2.5,8.7,322.9,0.00,14.6,18.5
"22/04/13","21:00",0.0,18.5,77.8,1009.3,354.3,2.3,6.2,336.3,0.00,14.6,18.4
"22/04/13","22:00",0.0,18.1,79.6,1009.7,334.5,4.1,7.0,339.9,0.00,14.6,17.9
"22/04/13","23:00",0.0,17.6,80.8,1010.2,335.7,3.9,8.1,346.9,0.00,14.3,17.8
"22/04/13","24:00",0.0,17.4,81.2,1010.4,330.4,2.2,7.1,341.1,0.00,14.2,17.7
"22/04/14","01:00",0.0,17.0,83.2,1010.7,328.0,2.8,4.3,328.3,0.00,14.2,17.5
"22/04/14","02:00",0.0,16.7,84.3,1010.2,306.4,2.5,4.7,318.6,0.00,14.1,17.3
"22/04/14","03:00",0.0,16.5,85.4,1010.0,335.1,2.8,4.7,339.0,0.00,14.1,17.0
"22/04/14","04:00",0.0,16.4,86.3,1009.7,316.4,2.7,5.7,321.6,0.00,14.1,16.9
"22/04/14","05:00",0.0,16.3,86.9,1010.4,296.9,1.8,4.1,326.1,0.00,14.2,16.7
"22/04/14","06:00",0.6,15.8,89.6,1010.9,332.2,2.0,3.9,312.6,0.00,14.1,16.7